Latest Weather Observations for Lochington

IDQ60801

Issued at 3:05 pm EST Wednesday 30 July 2014 (issued every 30 minutes, with the page automatically refreshed every 10 minutes)

About weather observations | Map of weather stations | Latest weather observations for QLD | Other Formats
Station Details ID: 035139 Name: LOCHINGTON Lat: -23.94 Lon: 147.53 Height: 267.19 m
Data from the previous 72 hours. | See also: Recent months at Lochington
Date/Time
EST
Temp
°C
App
Temp
°C
Dew
Point
Rel
Hum
%
Delta-T
°C
Wind Press
QNH
hPa
Press
MSL
hPa
Rain
since 9 am
mm
Dir
 
Spd
km/h
Gust
km/h
Spd
kts
Gust
kts
30/03:00pm 25.6 23.0 4.1 25 10.8 ENE 7 15 4 8 1018.4 1018.1 0.0
30/02:30pm 25.9 22.6 4.4 25 10.9 ESE 11 17 6 9 1018.7 - 0.0
30/02:00pm 25.1 22.5 4.3 26 10.5 NE 7 19 4 10 1019.2 1018.9 0.0
30/01:30pm 25.1 22.2 4.8 27 10.3 E 9 19 5 10 1019.6 - 0.0
30/01:00pm 24.4 21.1 4.7 28 9.9 ENE 11 19 6 10 1020.3 1020.0 0.0
30/12:30pm 24.3 21.9 5.1 29 9.8 NNE 7 19 4 10 1020.9 - 0.0
30/12:00pm 23.4 20.0 5.8 32 9.0 NNE 13 22 7 12 1021.5 1021.2 0.0
30/11:30am 22.9 20.2 5.8 33 8.7 N 9 15 5 8 1022.2 - 0.0
30/11:00am 21.9 19.5 5.3 34 8.3 NNE 7 13 4 7 1023.1 1022.9 0.0
30/10:30am 20.7 18.9 5.5 37 7.6 E 4 7 2 4 1023.7 - 0.0
30/10:00am 19.6 17.5 6.0 41 6.8 E 6 9 3 5 1023.9 1023.7 0.0
30/09:30am 18.1 16.0 6.0 45 6.0 E 6 9 3 5 1024.1 - 0.0
30/09:00am 16.4 15.0 5.4 48 5.3 ESE 2 4 1 2 1024.1 1023.8 0.0
30/08:30am 13.5 11.9 4.6 55 4.2 SW 2 4 1 2 1023.9 - 0.0
30/08:00am 11.4 9.7 3.9 60 3.4 W 2 4 1 2 1023.6 1023.4 0.0
30/07:30am 9.1 6.9 3.3 67 2.5 WNW 4 4 2 2 1023.3 - 0.0
30/07:00am 7.7 5.1 3.2 73 1.9 W 6 7 3 4 1023.0 1022.7 0.0
30/06:30am 8.1 6.7 3.8 74 1.9 CALM 0 2 0 1 1022.6 - 0.0
30/06:00am 6.8 4.4 1.9 71 2.0 W 4 7 2 4 1022.2 1021.9 0.0
30/05:30am 6.6 3.5 1.3 69 2.2 W 7 9 4 5 1021.7 - 0.0
30/05:00am 6.9 5.1 1.0 66 2.4 CALM 0 0 0 0 1021.2 1020.9 0.0
30/04:30am 7.6 5.4 1.2 64 2.6 E 2 6 1 3 1020.9 - 0.0
30/04:00am 8.3 6.6 2.1 65 2.6 CALM 0 2 0 1 1020.9 1020.6 0.0
30/03:30am 7.9 5.4 1.5 64 2.7 SW 4 7 2 4 1020.9 - 0.0
30/03:00am 8.3 6.5 1.5 62 2.8 CALM 0 2 0 1 1020.9 1020.6 0.0
30/02:30am 9.6 6.9 2.5 61 3.1 E 6 9 3 5 1020.9 - 0.0
30/02:00am 10.8 8.2 3.1 59 3.4 E 6 6 3 3 1020.9 1020.6 0.0
30/01:30am 10.2 7.4 2.1 57 3.5 ESE 6 7 3 4 1020.9 - 0.0
30/01:00am 11.4 9.6 3.7 59 3.5 NNE 2 4 1 2 1020.8 1020.5 0.0
30/12:30am 10.2 8.5 2.1 57 3.5 CALM 0 0 0 0 1020.7 - 0.0
30/12:00am 11.9 10.4 2.9 54 4.0 WSW 0 0 0 0 1020.7 1020.4 0.0
 
Date/Time
EST
Temp
°C
App
Temp
°C
Dew
Point
Rel
Hum
%
Delta-T
°C
Wind Press
QNH
hPa
Press
MSL
hPa
Rain
since 9 am
mm
Dir
 
Spd
km/h
Gust
km/h
Spd
kts
Gust
kts
29/11:30pm 10.8 9.0 1.4 52 4.0 WSW 0 0 0 0 1020.9 - 0.0
29/11:00pm 13.0 11.6 3.4 52 4.3 CALM 0 0 0 0 1021.0 1020.7 0.0
29/10:30pm 12.4 10.9 2.8 52 4.3 WSW 0 4 0 2 1021.2 - 0.0
29/10:00pm 14.4 11.7 2.6 45 5.3 N 6 9 3 5 1021.2 1020.9 0.0
29/09:30pm 14.9 12.3 3.1 45 5.4 E 6 7 3 4 1021.2 - 0.0
29/09:00pm 16.3 13.7 3.0 41 6.1 NE 6 9 3 5 1021.1 1020.8 0.0
29/08:30pm 17.1 13.6 3.4 40 6.4 N 11 11 6 6 1020.7 - 0.0
29/08:00pm 17.7 14.0 2.5 36 7.0 NNE 11 11 6 6 1020.7 1020.4 0.0
29/07:30pm 18.9 15.8 1.4 31 8.0 ENE 7 9 4 5 1020.7 - 0.0
29/07:00pm 17.4 14.1 0.1 31 7.6 ENE 7 11 4 6 1020.3 1020.0 0.0
29/06:30pm 21.5 18.6 2.7 29 9.0 NNE 7 9 4 5 1019.8 - 0.0
29/06:00pm 22.9 20.2 2.9 27 9.7 NE 6 6 3 3 1019.5 1019.2 0.0
29/05:30pm 24.0 22.5 2.8 25 10.3 CALM 0 0 0 0 1019.2 - 0.0
29/05:00pm 25.4 23.7 4.0 25 10.7 ESE 2 4 1 2 1019.1 1018.8 0.0
29/04:30pm 25.4 22.8 3.4 24 10.9 NNE 6 13 3 7 1019.0 - 0.0
29/04:00pm 25.5 22.8 3.5 24 11.0 E 7 13 4 7 1018.9 1018.6 0.0
29/03:30pm 25.2 22.6 3.2 24 10.9 ESE 6 11 3 6 1018.9 - 0.0
29/03:00pm 25.9 23.4 3.8 24 11.1 ENE 6 11 3 6 1019.1 1018.8 0.0
29/02:30pm 25.5 23.0 3.5 24 11.0 WSW 6 7 3 4 1019.4 - 0.0
29/02:00pm 25.4 23.7 4.0 25 10.7 W 2 7 1 4 1019.7 1019.4 0.0
29/01:30pm 25.0 23.1 4.7 27 10.3 N 4 9 2 5 1020.2 - 0.0
29/01:00pm 24.4 21.9 4.7 28 9.9 NE 7 15 4 8 1020.8 1020.5 0.0
29/12:30pm 23.7 21.4 5.6 31 9.3 N 7 15 4 8 1021.5 - 0.0
29/12:00pm 23.4 22.0 7.1 35 8.5 E 4 9 2 5 1022.1 1021.8 0.0
29/11:30am 22.1 20.6 6.7 37 8.0 E 4 7 2 4 1022.6 - 0.0
29/11:00am 20.6 18.4 5.4 37 7.6 SSE 6 9 3 5 1023.0 1022.7 0.0
29/10:30am 19.9 17.7 5.2 38 7.3 SE 6 7 3 4 1023.5 - 0.0
29/10:00am 18.3 16.5 5.2 42 6.4 S 4 7 2 4 1023.7 1023.5 0.0
29/09:30am 17.3 15.8 4.9 44 6.0 N 2 6 1 3 1023.7 - 0.0
29/09:00am 15.5 13.6 4.8 49 5.1 NNE 4 7 2 4 1023.5 1023.3 0.0
29/08:30am 14.0 12.2 3.5 49 4.8 ESE 2 6 1 3 1023.3 - 0.0
29/08:00am 12.1 9.8 2.6 52 4.2 E 4 7 2 4 1023.0 1022.7 0.0
29/07:30am 8.0 5.4 0.7 60 3.0 SSE 4 6 2 3 1023.4 - 0.0
29/07:00am 7.7 5.5 1.1 63 2.7 NNW 2 4 1 2 1023.1 1022.9 0.0
29/06:30am 6.5 2.8 0.2 64 2.5 WNW 9 15 5 8 1023.0 - 0.0
29/06:00am 5.2 2.6 -1.7 61 2.6 NW 2 6 1 3 1022.4 1022.1 0.0
29/05:30am 7.6 5.4 0.8 62 2.8 NW 2 4 1 2 1022.2 - 0.0
29/05:00am 6.8 4.0 -0.4 60 2.8 WNW 4 6 2 3 1021.8 1021.5 0.0
29/04:30am 6.0 3.2 -0.5 63 2.5 W 4 6 2 3 1021.5 - 0.0
29/04:00am 5.6 2.8 -0.7 64 2.4 W 4 6 2 3 1021.2 1020.9 0.0
29/03:30am 6.6 4.5 -0.8 59 2.9 CALM 0 0 0 0 1020.9 - 0.0
29/03:00am 6.8 4.6 -1.8 54 3.2 CALM 0 4 0 2 1020.8 1020.5 0.0
29/02:30am 8.5 5.4 0.0 55 3.4 ESE 6 9 3 5 1020.8 - 0.0
29/02:00am 8.3 5.2 0.3 57 3.2 E 6 11 3 6 1020.8 1020.5 0.0
29/01:30am 7.8 5.0 -0.4 56 3.2 W 4 4 2 2 1020.6 - 0.0
29/01:00am 8.0 5.9 -1.0 53 3.5 CALM 0 0 0 0 1020.8 1020.5 0.0
29/12:30am 8.8 6.8 -0.2 53 3.6 CALM 0 0 0 0 1020.9 - 0.0
29/12:00am 9.1 7.0 -0.8 50 3.9 CALM 0 0 0 0 1021.1 1020.8 0.0
 
Date/Time
EST
Temp
°C
App
Temp
°C
Dew
Point
Rel
Hum
%
Delta-T
°C
Wind Press
QNH
hPa
Press
MSL
hPa
Rain
since 9 am
mm
Dir
 
Spd
km/h
Gust
km/h
Spd
kts
Gust
kts
28/11:30pm 10.3 8.4 0.6 51 4.0 CALM 0 0 0 0 1021.2 - 0.0
28/11:00pm 10.3 8.3 -0.2 48 4.3 CALM 0 0 0 0 1021.2 1020.9 0.0
28/10:30pm 13.4 11.3 1.4 44 5.2 NE 2 6 1 3 1021.2 - 0.0
28/10:00pm 12.1 10.2 0.5 45 4.9 CALM 0 0 0 0 1021.3 1021.0 0.0
28/09:30pm 11.0 8.1 -0.8 44 4.8 SE 4 7 2 4 1021.3 - 0.0
28/09:00pm 13.7 11.9 1.4 43 5.4 CALM 0 0 0 0 1021.2 1020.9 0.0
28/08:30pm 15.4 12.7 0.0 35 6.6 E 4 6 2 3 1021.0 - 0.0
28/08:00pm 17.0 13.7 0.2 32 7.3 E 7 11 4 6 1020.8 1020.5 0.0
28/07:30pm 18.0 15.2 -0.3 29 8.0 NE 4 6 2 3 1020.6 - 0.0
28/07:00pm 18.7 16.1 0.8 30 8.0 NE 4 6 2 3 1020.3 1020.0 0.0
28/06:30pm 21.4 18.4 1.1 26 9.4 NE 6 7 3 4 1019.9 - 0.0
28/06:00pm 22.5 19.9 0.9 24 10.0 NNE 4 6 2 3 1019.7 1019.4 0.0
28/05:30pm 24.1 21.4 0.4 21 11.1 N 4 6 2 3 1019.5 - 0.0
28/05:00pm 25.2 23.4 1.3 21 11.4 CALM 0 4 0 2 1019.4 1019.1 0.0
28/04:30pm 25.3 22.3 0.8 20 11.6 N 6 9 3 5 1019.2 - 0.0
28/04:00pm 26.1 23.0 1.4 20 11.9 NW 7 11 4 6 1019.1 1018.8 0.0
28/03:30pm 26.5 24.4 1.7 20 12.1 NW 2 6 1 3 1019.2 - 0.0
28/03:00pm 25.2 22.6 0.7 20 11.6 SSW 4 9 2 5 1019.5 1019.2 0.0
28/02:30pm 25.2 22.3 1.3 21 11.4 WNW 6 11 3 6 1019.8 - 0.0
28/02:00pm 25.5 22.5 2.2 22 11.3 W 7 15 4 8 1020.3 1020.0 0.0
28/01:30pm 25.5 23.2 2.9 23 11.2 S 4 7 2 4 1020.8 - 0.0
28/01:00pm 24.9 22.5 2.4 23 10.9 NNE 4 11 2 6 1021.3 1021.0 0.0
28/12:30pm 24.2 21.4 1.8 23 10.7 N 6 15 3 8 1022.0 - 0.0
28/12:00pm 22.9 20.1 1.9 25 9.9 NNE 6 11 3 6 1022.8 1022.5 0.0
28/11:30am 22.0 18.6 1.6 26 9.6 NE 9 17 5 9 1023.5 - 0.0
28/11:00am 21.9 18.4 1.0 25 9.7 NNE 9 13 5 7 1024.2 1023.9 0.0
28/10:30am 20.5 17.3 0.9 27 9.0 NE 7 11 4 6 1024.7 - 0.0
28/10:00am 19.4 16.2 0.9 29 8.4 E 7 11 4 6 1025.1 1024.8 0.0
28/09:30am 18.5 15.7 1.9 33 7.6 ESE 6 9 3 5 1025.1 - 0.0
28/09:00am 15.3 13.4 2.8 43 5.7 NW 2 4 1 2 1025.0 1024.7 0.0
28/08:30am 12.3 10.8 3.0 53 4.2 CALM 0 4 0 2 1024.7 - 0.0
28/08:00am 10.0 8.4 2.6 60 3.2 CALM 0 0 0 0 1024.4 1024.1 0.0
28/07:30am 7.4 5.8 2.3 70 2.1 CALM 0 0 0 0 1024.2 - 0.0
28/07:00am 5.6 3.0 1.0 72 1.8 WNW 4 7 2 4 1023.7 1023.5 0.0
28/06:30am 5.5 2.3 0.9 72 1.8 WNW 7 9 4 5 1023.3 - 0.0
28/06:00am 6.2 3.2 1.1 70 2.0 WNW 6 6 3 3 1023.0 1022.7 0.0
28/05:30am 6.1 3.8 0.2 66 2.3 ESE 2 11 1 6 1022.8 - 0.0
28/05:00am 9.6 8.2 3.8 67 2.6 CALM 0 0 0 0 1022.8 1022.5 0.0
28/04:30am 7.7 5.6 2.0 67 2.4 SSW 2 6 1 3 1022.7 - 0.0
28/04:00am 8.3 6.3 2.1 65 2.6 W 2 6 1 3 1022.5 1022.2 0.0
28/03:30am 8.9 6.4 1.6 60 3.1 W 4 6 2 3 1022.6 - 0.0
28/03:00am 9.6 6.8 2.0 59 3.2 NW 6 6 3 3 1022.6 1022.3 0.0
28/02:30am 11.2 8.5 2.8 56 3.7 WNW 6 7 3 4 1022.9 - 0.0
28/02:00am 11.3 8.6 2.6 55 3.8 WNW 6 6 3 3 1023.0 1022.7 0.0
28/01:30am 12.2 9.5 2.6 52 4.2 WNW 6 6 3 3 1023.0 - 0.0
28/01:00am 12.4 9.7 2.8 52 4.3 NNW 6 7 3 4 1023.0 1022.7 0.0
28/12:30am 12.1 9.2 2.6 52 4.2 WNW 7 9 4 5 1022.9 - 0.0
28/12:00am 14.8 12.0 3.0 45 5.4 E 7 9 4 5 1023.0 1022.7 0.0
 
Date/Time
EST
Temp
°C
App
Temp
°C
Dew
Point
Rel
Hum
%
Delta-T
°C
Wind Press
QNH
hPa
Press
MSL
hPa
Rain
since 9 am
mm
Dir
 
Spd
km/h
Gust
km/h
Spd
kts
Gust
kts
27/11:30pm 15.6 12.0 3.1 43 5.8 E 11 15 6 8 1022.9 - 0.0
27/11:00pm 15.5 12.3 3.0 43 5.7 E 9 11 5 6 1022.9 1022.6 0.0
27/10:30pm 16.4 13.2 3.1 41 6.2 E 9 11 5 6 1023.1 - 0.0
27/10:00pm 15.7 12.5 3.2 43 5.7 ESE 9 13 5 7 1023.2 1023.0 0.0
27/09:30pm 15.9 12.9 2.0 39 6.3 E 7 11 4 6 1023.0 - 0.0
27/09:00pm 15.3 13.5 1.1 38 6.2 CALM 0 4 0 2 1022.7 1022.4 0.0
27/08:30pm 16.8 15.1 1.7 36 6.8 CALM 0 4 0 2 1022.3 - 0.0
27/08:00pm 17.2 15.5 2.0 36 6.9 CALM 0 0 0 0 1022.0 1021.7 0.0
27/07:30pm 18.6 16.4 1.2 31 7.9 WSW 2 6 1 3 1021.8 - 0.0
27/07:00pm 19.9 17.8 1.8 30 8.4 SSW 2 4 1 2 1021.6 1021.3 0.0
27/06:30pm 21.6 19.2 2.3 28 9.2 S 4 6 2 3 1021.3 - 0.0
27/06:00pm 22.8 20.4 2.3 26 9.8 S 4 6 2 3 1021.0 1020.7 0.0
27/05:30pm 24.2 21.2 1.8 23 10.7 S 7 11 4 6 1020.7 - 0.0
27/05:00pm 25.3 22.3 2.1 22 11.2 S 7 13 4 7 1020.6 1020.3 0.0
27/04:30pm 26.0 23.3 3.9 24 11.1 S 7 15 4 8 1020.6 - 0.0
27/04:00pm 25.7 22.4 2.4 22 11.4 SSW 9 15 5 8 1020.6 1020.3 0.0
27/03:30pm 26.4 23.2 3.0 22 11.6 S 9 22 5 12 1020.8 - 0.0

Other Formats:

Comma delimited format used in spreadsheet applications
http://www.bom.gov.au/fwo/IDQ60801/IDQ60801.94399.axf

JavaScript Object Notation format (JSON) in row-major order
http://www.bom.gov.au/fwo/IDQ60801/IDQ60801.94399.json